User: anonymous   Login
Location: Caltech
(34.1382°N, 118.1253°W)
Time: 06:33:51
(UTC-07:00)
Language:

OAO 2 Rocket - Orbit

View from above orbital plane
View from above orbital plane
View from above satellite
View from above satellite

Ground track
Ground track

The orbit data is extracted from the following two-line orbital elements,

1  3598U 68110B   18170.91804546 +.00000030 +00000-0 +11673-4 0  9990
2  3598 034.9947 060.5829 0049548 329.9145 029.8706 14.54376098599132
Epoch (UTC): 19 June 2018 22:01:59
Eccentricity: 0.0049548
inclination: 34.9947°
perigee height: 676 km
apogee height: 746 km
right ascension of ascending node: 60.5829°
argument of perigee: 329.9145°
revolutions per day: 14.54376098
mean anomaly at epoch: 29.8706°
orbit number at epoch: 59913

The dashed part of the orbit path shows where the satellite is in the earth's shadow,  

DLR